[[{"header":{"parameterUnit":"m.s-1","parameterCategory":1,"la1":30.2991,"la2":30.254,"lo1":-89.0895,"lo2":-89.0444,"dy":0.0017,"dx":0.0017,"nx":28,"ny":28,"refTime":"2024-06-30T21:00:00:Z","depth":0,"parameterNumber":2,"parameterNumberName":"U-component_of_WINDS"},"data":[0,0,0,0,0,0,0,0,0,0,0,0,0,0,0,0,0,0,0,0,0,0,0,0,0,0,0,0,0,0,0,0,0,0,0,0,0,0,0,0,0,0,0,0,0,0,0,0,0,0,0,0,0,0,0,0,0,0,0.8646,0.8645,0,0.8567,0.8566,0.8566,0.8474,0.8473,0.8472,0.847,0.8389,0.8389,0.8388,0,0,0,0,0,0,0,0,0,0,0,0,0,0.8717,0.8717,0.8646,0.8645,0.8644,0.8567,0.8566,0.8565,0.8475,0.8473,0.8471,0.847,0.839,0.8389,0.8388,0,0,0,0,0,0,0,0,0,0,0,0,0,0.8667,0.8716,0.8646,0.8589,0.8583,0.8568,0.8566,0.8565,0.8475,0.8473,0.8471,0.8469,0.839,0.8389,0.8388,0.8421,0,0,0.8384,0.8383,0,0,0,0,0,0,0,0,0.867,0.8665,0.8599,0.8593,0.8587,0.8528,0.8562,0.8517,0.8475,0.8516,0.847,0.8468,0.8437,0.8432,0.8422,0.8417,0.8414,0.8383,0.8383,0.8382,0.8382,0,0,0,0,0,0,0,0.8674,0.8668,0.8615,0.8598,0.859,0.8568,0.8559,0.8553,0.8489,0.8512,0.8506,0.8498,0.8434,0.8423,0.8419,0.8413,0.8384,0.8382,0.8382,0.8381,0.8433,0.8435,0,0,0,0,0,0,0.8686,0.8671,0.8617,0.8612,0.8624,0.8568,0.8558,0.8549,0.8489,0.8478,0.8499,0.8494,0.8427,0.8421,0.8416,0.8452,0.8382,0.8381,0.838,0.8431,0.8433,0.8436,0,0,0,0,0,0,0.8688,0.8682,0.862,0.864,0.863,0.8569,0.856,0.8549,0.8538,0.8479,0.8467,0.8501,0.8425,0.8418,0.8421,0.8448,0.838,0.8379,0.8428,0.8432,0.8435,0.8525,0,0,0,0,0,0,0.869,0.8683,0.8695,0.8641,0.863,0.8627,0.8562,0.8549,0.8536,0.8528,0.8477,0.8467,0.8423,0.8423,0.842,0.8445,0.8378,0.8426,0.843,0.8434,0.8519,0.8531,0.8541,0,0,0,0,0,0.8693,0.8723,0.8696,0.869,0.8643,0.8628,0.8622,0.857,0.8539,0.8551,0.8513,0.8468,0.8446,0.8424,0.8419,0.8445,0.8424,0.8429,0.8433,0.8514,0.8529,0.8541,0,0,0,0,0,0,0.8782,0.8715,0.8684,0.8698,0.8669,0.8613,0.8626,0.8587,0.8567,0.856,0.8497,0.8486,0.8497,0.8471,0.8448,0.8475,0.8428,0.8433,0.8492,0.8505,0.8515,0.8522,0.8377,0,0,0,0,0,0.8803,0.8796,0.8738,0.8756,0.8743,0.8687,0.8679,0.8642,0.861,0.8597,0.856,0.8531,0.8517,0.8509,0.8493,0.8515,0.8503,0.853,0.8541,0.855,0.8555,0.8566,0.8578,0.8452,0.8452,0.8452,0,0,0.8846,0.8809,0.8808,0.8772,0.8746,0.8741,0.8678,0.8675,0.8671,0.8597,0.8598,0.8569,0.8533,0.8546,0.8549,0.8524,0.8587,0.8557,0.8564,0.8564,0.8572,0.8584,0.8595,0.8455,0.8454,0.8454,0,0,0.8923,0.8894,0.8906,0.8881,0.8843,0.8805,0.8809,0.8758,0.8737,0.8737,0.8682,0.8676,0.8654,0.863,0.8615,0.8685,0.8644,0.8682,0.8738,0.875,0.876,0.8768,0.8795,0.8805,0.8686,0.8687,0.8687,0,0.8982,0.8972,0.8917,0.8918,0.8904,0.8838,0.885,0.8829,0.8787,0.8779,0.8752,0.8723,0.8694,0.8701,0.8719,0.8708,0.8711,0.8687,0.8763,0.8771,0.8778,0.8802,0.8812,0.8692,0.8691,0.869,0.869,0,0.9047,0.9041,0.9056,0.9018,0.9006,0.9012,0.8959,0.8953,0.8918,0.8884,0.8885,0.8848,0.8824,0.8823,0.8787,0.8826,0.8811,0.8775,0.8726,0.8796,0.8818,0.8826,0.8699,0.8697,0.8695,0.8694,0,0,0.9177,0.9109,0.9116,0.9099,0.9052,0.9046,0.9051,0.9028,0.9025,0.8998,0.9001,0.8984,0.895,0.8934,0.8895,0.8905,0.8965,0.8867,0.8865,0.8887,0.9006,0.9035,0.9047,0.8937,0.8939,0.894,0.901,0,0.9246,0.9249,0.9201,0.9217,0.9212,0.915,0.9154,0.9126,0.9095,0.9086,0.9051,0.9041,0.8996,0.8986,0.8993,0.8956,0.8988,0.895,0.8939,0.894,0.8952,0.9058,0.9088,0.9155,0.9018,0.9019,0.902,0,0.9327,0.9306,0.9323,0.9277,0.9273,0.9277,0.9253,0.9245,0.9213,0.919,0.9172,0.9129,0.913,0.9084,0.9086,0.9061,0.9054,0.9036,0.9037,0.9035,0.8985,0.9059,0.9176,0.9186,0.9033,0.9032,0.9031,0,0.9422,0.9398,0.9405,0.9392,0.9338,0.9343,0.9321,0.9286,0.9276,0.9255,0.9248,0.9228,0.9217,0.9202,0.9154,0.9125,0.9162,0.9112,0.9143,0.9145,0.9154,0.9154,0.9272,0.9148,0.9148,0.9148,0.9148,0,0.9504,0.9517,0.9447,0.9452,0.9465,0.9409,0.9424,0.9395,0.9366,0.9364,0.9308,0.9308,0.9245,0.9238,0.9201,0.9208,0.9203,0.9185,0.9175,0.9191,0.9193,0.9185,0.918,0.915,0.915,0.9149,0.9149,0,0.9613,0.9566,0.957,0.9519,0.9507,0.9519,0.9476,0.9478,0.9444,0.9443,0.9439,0.9386,0.9375,0.9326,0.9302,0.9277,0.9298,0.9278,0.931,0.9303,0.9338,0.9336,0.9456,0.9469,0.9336,0.9338,0.9339,0,0.9669,0.9678,0.9628,0.9624,0.9604,0.9597,0.9587,0.9532,0.9524,0.9489,0.9496,0.9481,0.9465,0.9451,0.9409,0.9392,0.9371,0.9415,0.9368,0.9384,0.9374,0.9374,0.9375,0.9425,0.9427,0.9428,0.9429,0,0.9775,0.9752,0.9739,0.9719,0.9709,0.9691,0.9669,0.9668,0.9608,0.9601,0.959,0.9578,0.9555,0.9541,0.9517,0.9494,0.9452,0.9444,0.9451,0.9467,0.9486,0.9477,0.9338,0.9442,0.944,0.944,0.9439,0.9438,0.9859,0.9865,0.9832,0.982,0.9798,0.978,0.978,0.9746,0.9736,0.9713,0.9682,0.9675,0.9643,0.9606,0.9587,0.9581,0.9557,0.9566,0.9569,0.9572,0.9581,0.9486,0.9576,0.9575,0.9575,0.9575,0.9574,0,0.9963,0.9939,0.9929,0.9901,0.9892,0.9854,0.9828,0.9824,0.9818,0.9792,0.9779,0.9766,0.9753,0.9711,0.9693,0.9697,0.9677,0.9694,0.9693,0.9689,0.9602,0.9599,0.971,0.971,0.971,0.971,0.971,0.971,1.0016,1.0024,0.9997,0.9994,0.997,0.9963,0.9952,0.9935,0.9914,0.9903,0.9891,0.9864,0.9833,0.9812,0.9798,0.9786,0.9783,0.9806,0.9788,0.9708,0.9695,0.9683,0.9679,0.9806,0.9806,0.9876,0.9877,0.9877]},{"header":{"parameterUnit":"m.s-1","parameterCategory":1,"la1":30.2991,"la2":30.254,"lo1":-89.0895,"lo2":-89.0444,"dy":0.0017,"dx":0.0017,"nx":28,"ny":28,"refTime":"2024-06-30T21:00:00:Z","depth":0,"parameterNumber":3,"parameterNumberName":"V-component_of_WINDS"},"data":[0,0,0,0,0,0,0,0,0,0,0,0,0,0,0,0,0,0,0,0,0,0,0,0,0,0,0,0,0,0,0,0,0,0,0,0,0,0,0,0,0,0,0,0,0,0,0,0,0,0,0,0,0,0,0,0,0,0,-2.5342,-2.5342,0,-2.536,-2.536,-2.5361,-2.5381,-2.5381,-2.5381,-2.5382,-2.5397,-2.5397,-2.5398,0,0,0,0,0,0,0,0,0,0,0,0,0,-2.5324,-2.5324,-2.5342,-2.5342,-2.5343,-2.536,-2.5361,-2.5361,-2.5381,-2.5381,-2.5381,-2.5382,-2.5397,-2.5397,-2.5398,0,0,0,0,0,0,0,0,0,0,0,0,0,-2.5336,-2.5324,-2.5342,-2.5355,-2.5356,-2.536,-2.5361,-2.5361,-2.5381,-2.5381,-2.5382,-2.5382,-2.5397,-2.5397,-2.5398,-2.539,0,0,-2.5398,-2.5398,0,0,0,0,0,0,0,0,-2.5335,-2.5337,-2.5353,-2.5354,-2.5355,-2.5369,-2.536,-2.537,-2.538,-2.5371,-2.5382,-2.5382,-2.5387,-2.5388,-2.5391,-2.5391,-2.5391,-2.5398,-2.5398,-2.5399,-2.5399,0,0,0,0,0,0,0,-2.5334,-2.5336,-2.5349,-2.5353,-2.5354,-2.5359,-2.5362,-2.5362,-2.5376,-2.5372,-2.5374,-2.5376,-2.5388,-2.539,-2.5391,-2.5392,-2.5398,-2.5398,-2.5399,-2.5399,-2.539,-2.5389,0,0,0,0,0,0,-2.5332,-2.5335,-2.5349,-2.535,-2.5346,-2.5359,-2.5362,-2.5364,-2.5376,-2.5379,-2.5375,-2.5376,-2.539,-2.5391,-2.5392,-2.5386,-2.5399,-2.5399,-2.5399,-2.539,-2.539,-2.5389,0,0,0,0,0,0,-2.5332,-2.5333,-2.5348,-2.5343,-2.5345,-2.5359,-2.5361,-2.5364,-2.5366,-2.5379,-2.5381,-2.5375,-2.539,-2.5391,-2.5391,-2.5386,-2.5399,-2.5399,-2.539,-2.539,-2.5389,-2.5372,0,0,0,0,0,0,-2.5331,-2.5333,-2.533,-2.5343,-2.5345,-2.5347,-2.5361,-2.5364,-2.5367,-2.5369,-2.5379,-2.5381,-2.5391,-2.5391,-2.5391,-2.5387,-2.5399,-2.5391,-2.539,-2.5389,-2.5373,-2.5371,-2.5369,0,0,0,0,0,-2.533,-2.5323,-2.5329,-2.5331,-2.5342,-2.5347,-2.5348,-2.536,-2.5367,-2.5364,-2.5373,-2.5381,-2.5387,-2.5391,-2.5391,-2.5387,-2.5391,-2.539,-2.539,-2.5374,-2.5371,-2.5369,0,0,0,0,0,0,-2.5306,-2.5324,-2.5332,-2.5329,-2.5336,-2.535,-2.5347,-2.5356,-2.5361,-2.5362,-2.5376,-2.5378,-2.5376,-2.5382,-2.5385,-2.5382,-2.5391,-2.539,-2.5378,-2.5376,-2.5374,-2.5373,-2.5399,0,0,0,0,0,-2.5301,-2.5304,-2.5319,-2.5315,-2.5318,-2.5332,-2.5334,-2.5343,-2.5351,-2.5354,-2.5362,-2.5369,-2.5373,-2.5375,-2.5378,-2.5374,-2.5378,-2.5372,-2.537,-2.5368,-2.5367,-2.5368,-2.5366,-2.5386,-2.5386,-2.5386,0,0,-2.5289,-2.53,-2.53,-2.531,-2.5317,-2.532,-2.5334,-2.5336,-2.5338,-2.5354,-2.5355,-2.5361,-2.537,-2.5369,-2.5368,-2.5373,-2.5363,-2.5367,-2.5366,-2.5366,-2.5367,-2.5365,-2.5363,-2.5386,-2.5386,-2.5386,0,0,-2.527,-2.5278,-2.5276,-2.5284,-2.5295,-2.5304,-2.5304,-2.5317,-2.5323,-2.5325,-2.5337,-2.534,-2.5346,-2.5352,-2.5356,-2.5344,-2.5352,-2.5344,-2.5334,-2.5334,-2.5333,-2.5331,-2.5328,-2.5327,-2.5344,-2.5344,-2.5344,0,-2.5254,-2.5259,-2.5274,-2.5276,-2.528,-2.5297,-2.5296,-2.5302,-2.5313,-2.5317,-2.5322,-2.5332,-2.5338,-2.534,-2.5337,-2.5339,-2.534,-2.5343,-2.5332,-2.5331,-2.533,-2.5327,-2.5325,-2.5343,-2.5343,-2.5343,-2.5343,0,-2.5239,-2.5243,-2.524,-2.5253,-2.5258,-2.5258,-2.5273,-2.5276,-2.5286,-2.5295,-2.5298,-2.5307,-2.5315,-2.5316,-2.5323,-2.5319,-2.5322,-2.5329,-2.5338,-2.5327,-2.5324,-2.5323,-2.5341,-2.5342,-2.5342,-2.5342,0,0,-2.5203,-2.5227,-2.5226,-2.5233,-2.5248,-2.5251,-2.5253,-2.5262,-2.5265,-2.5273,-2.5276,-2.5282,-2.529,-2.5295,-2.5304,-2.5305,-2.5296,-2.5313,-2.5313,-2.531,-2.5294,-2.5289,-2.5287,-2.5303,-2.5303,-2.5303,-2.5294,0,-2.5187,-2.5192,-2.5207,-2.5208,-2.5213,-2.523,-2.5232,-2.5242,-2.5252,-2.5257,-2.5267,-2.5272,-2.5282,-2.5285,-2.5287,-2.5297,-2.5293,-2.5298,-2.5306,-2.5306,-2.5303,-2.5286,-2.5279,-2.527,-2.5293,-2.5293,-2.5293,0,-2.5168,-2.5177,-2.5179,-2.5197,-2.52,-2.5201,-2.5212,-2.5217,-2.5229,-2.5237,-2.5244,-2.5255,-2.5259,-2.5268,-2.5275,-2.5277,-2.5282,-2.5288,-2.5288,-2.5289,-2.5298,-2.5287,-2.5267,-2.5266,-2.5291,-2.5291,-2.5291,0,-2.5143,-2.5156,-2.516,-2.5165,-2.5186,-2.5187,-2.5196,-2.5208,-2.5214,-2.5224,-2.5228,-2.5237,-2.5242,-2.5249,-2.5263,-2.5268,-2.5269,-2.5278,-2.5275,-2.5275,-2.5274,-2.5274,-2.5256,-2.5276,-2.5276,-2.5276,-2.5276,0,-2.5123,-2.5124,-2.5149,-2.5151,-2.5153,-2.5171,-2.5173,-2.5183,-2.5195,-2.52,-2.5215,-2.5219,-2.5238,-2.5244,-2.5255,-2.526,-2.5262,-2.5268,-2.5271,-2.5267,-2.5266,-2.5269,-2.527,-2.5276,-2.5276,-2.5276,-2.5276,0,-2.5095,-2.5112,-2.5117,-2.5138,-2.5143,-2.5144,-2.5161,-2.5165,-2.5177,-2.5183,-2.5185,-2.5203,-2.5212,-2.5228,-2.524,-2.5248,-2.525,-2.5255,-2.5247,-2.5248,-2.5245,-2.5245,-2.5228,-2.5228,-2.5248,-2.5248,-2.5248,0,-2.5081,-2.5083,-2.5105,-2.511,-2.5119,-2.5126,-2.5133,-2.5151,-2.5157,-2.5174,-2.5175,-2.5186,-2.5195,-2.5209,-2.5223,-2.5233,-2.5239,-2.5232,-2.524,-2.5237,-2.524,-2.524,-2.5241,-2.523,-2.523,-2.5229,-2.5229,0,-2.5056,-2.5065,-2.5075,-2.5088,-2.5096,-2.5107,-2.5118,-2.5122,-2.5143,-2.5149,-2.5159,-2.5167,-2.5182,-2.5192,-2.5205,-2.5214,-2.5225,-2.5227,-2.5227,-2.5223,-2.5218,-2.5222,-2.5242,-2.5227,-2.5227,-2.5227,-2.5228,-2.5228,-2.5036,-2.5039,-2.5056,-2.5066,-2.5078,-2.5089,-2.5094,-2.5108,-2.5117,-2.5131,-2.5142,-2.5152,-2.5167,-2.5186,-2.5194,-2.5203,-2.5208,-2.5207,-2.5207,-2.5207,-2.5206,-2.5217,-2.5205,-2.5205,-2.5205,-2.5205,-2.5205,0,-2.5012,-2.5025,-2.5035,-2.5052,-2.5061,-2.5073,-2.5087,-2.5093,-2.5103,-2.5116,-2.5126,-2.5139,-2.515,-2.5167,-2.5179,-2.5183,-2.5189,-2.5186,-2.5186,-2.5188,-2.52,-2.5199,-2.5181,-2.5181,-2.5181,-2.5181,-2.5181,-2.5181,-2.5001,-2.5008,-2.502,-2.5033,-2.5045,-2.5057,-2.5064,-2.5075,-2.5086,-2.5101,-2.5111,-2.5122,-2.5137,-2.5152,-2.5163,-2.5168,-2.5172,-2.5167,-2.5174,-2.5185,-2.5187,-2.5189,-2.5188,-2.5168,-2.5168,-2.5161,-2.5161,-2.5161]}]]